Concord, NH

4:32 AM EDT on August 22, 2017 (GMT -0400)
Concord Municipal

Weather History for KCON - October, 2012

Change the Weather History Date:

Saturday, October 13, 2012

  Actual Average Record
Temperature  
Mean Temperature 38 °F 49 °F  
Max Temperature 52 °F 62 °F 88 °F (1930)
Min Temperature 23 °F 36 °F 22 °F (1981)
Degree Days  
Heating Degree Days 27 16  
Month to date heating degree days 168 181  
Since 1 July heating degree days 370 416  
Cooling Degree Days 0 0  
Month to date cooling degree days 1 0  
Year to date cooling degree days 569 450  
Moisture  
Dew Point 24 °F    
Average Humidity 60    
Maximum Humidity 92    
Minimum Humidity 28    
Precipitation  
Precipitation T in 0.13 in 1.32 in (1990)
Month to date precipitation 0.81 1.70  
Year to date precipitation 30.92 31.35  
Snow  
Snow 0.00 in 0.00 in 0.10 in (1934)
Month to date snowfall 0.0 0.0  
Since 1 July snowfall 0.0 0.0  
Since 1 September snowfall 0.0 0.0  
Snow Depth 0.00 in    
Sea Level Pressure  
Sea Level Pressure 30.38 in    
Wind  
Wind Speed 4 mph (WNW)    
Max Wind Speed 16 mph    
Max Gust Speed 21 mph    
Visibility 10 miles    
Events      
T = Trace of Precipitation, MM = Missing Value Source: NWS Daily Summary

Daily Weather History Graph

Daily Weather History Graph

Search for Another Location

Airport or City:

Trip Planner

Search our weather history database for the weather conditions in past years. The results will help you decide how hot, cold, wet, or windy it might be!

Date:

Astronomy

Oct. 13, 2012 Rise Set
Actual Time 6:57 AM EDT 6:05 PM EDT
Civil Twilight 6:29 AM EDT 6:34 PM EDT
Nautical Twilight 5:56 AM EDT 7:07 PM EDT
Astronomical Twilight 5:23 AM EDT 7:40 PM EDT
Moon 4:41 AM EDT (10/13) 4:49 PM EDT (10/13)
Length of Visible Light 12h 05m
Length of Day
11h 07m
Waning Crescent, 5% of the Moon is Illuminated
Oct 13
Waning Crescent
Oct 15
New
Oct 21
First Quarter
Oct 29
Full
Nov 6
Last Quarter

Hourly Weather History & Observations

Time (EDT) Temp. Windchill Dew Point Humidity Pressure Visibility Wind Dir Wind Speed Gust Speed Precip Events Conditions
12:51 AM 33.8 °F 29.6 °F 23.0 °F 65% 30.37 in 10.0 mi WNW 4.6 mph - N/A   Clear
1:51 AM 28.4 °F - 23.0 °F 80% 30.38 in 10.0 mi Calm Calm - N/A   Clear
2:51 AM 28.4 °F 24.6 °F 23.0 °F 80% 30.38 in 10.0 mi WSW 3.5 mph - N/A   Clear
3:51 AM 25.0 °F - 23.0 °F 92% 30.40 in 10.0 mi Calm Calm - N/A   Clear
4:51 AM 25.0 °F - 23.0 °F 92% 30.41 in 10.0 mi Calm Calm - N/A   Clear
5:51 AM 24.1 °F - 21.9 °F 91% 30.43 in 10.0 mi Calm Calm - N/A   Clear
6:51 AM 23.0 °F - 19.4 °F 86% 30.44 in 10.0 mi Calm Calm - N/A   Clear
7:51 AM 27.0 °F - 25.0 °F 92% 30.46 in 10.0 mi Calm Calm - N/A   Clear
8:51 AM 35.1 °F - 26.1 °F 70% 30.46 in 10.0 mi Calm Calm - N/A   Clear
9:51 AM 39.9 °F 35.1 °F 25.0 °F 55% 30.45 in 10.0 mi WNW 6.9 mph - N/A   Clear
10:51 AM 44.6 °F 38.4 °F 23.0 °F 43% 30.43 in 10.0 mi NW 12.7 mph 18.4 mph N/A   Clear
11:51 AM 46.9 °F - 21.9 °F 37% 30.42 in 10.0 mi WNW 10.4 mph 19.6 mph N/A   Clear
12:51 PM 48.9 °F - 21.0 °F 33% 30.40 in 10.0 mi NW 8.1 mph 18.4 mph N/A   Clear
1:51 PM 51.8 °F - 21.2 °F 30% 30.36 in 10.0 mi NW 9.2 mph 17.3 mph N/A   Clear
2:51 PM 52.0 °F - 21.0 °F 30% 30.36 in 10.0 mi NNE 5.8 mph - N/A   Clear
3:51 PM 52.0 °F - 19.9 °F 28% 30.35 in 10.0 mi West 8.1 mph - N/A   Clear
4:51 PM 51.1 °F - 19.9 °F 29% 30.34 in 10.0 mi West 5.8 mph - N/A   Clear
5:51 PM 46.9 °F - 21.9 °F 37% 30.36 in 10.0 mi Calm Calm - N/A   Clear
6:51 PM 39.0 °F - 28.9 °F 67% 30.37 in 10.0 mi Calm Calm - N/A   Clear
7:51 PM 37.0 °F - 28.9 °F 73% 30.35 in 10.0 mi Calm Calm - N/A   Scattered Clouds
8:51 PM 39.0 °F - 30.0 °F 70% 30.33 in 10.0 mi Calm Calm - N/A   Mostly Cloudy
9:51 PM 39.2 °F 37.0 °F 30.2 °F 70% 30.30 in 10.0 mi SE 3.5 mph - N/A   Overcast
10:51 PM 42.1 °F 39.2 °F 28.9 °F 60% 30.31 in 10.0 mi SSE 4.6 mph - N/A   Overcast
11:51 PM 42.8 °F 40.1 °F 30.2 °F 61% 30.30 in 10.0 mi South 4.6 mph - N/A   Mostly Cloudy